Location: Edson
(53.5864°N, 116.4322°W)
Time: 08:38:45
(UTC+00:00)

N. Korean satellite - Visible Passes

Search period start: 04 December 2021 00:00
Search period end: 14 December 2021 00:00
Orbit: 447 x 495 km, 97.3° (Epoch: 03 December)

Date Brightness Start Highest point End Pass type
(mag) Time Alt. Az. Time Alt. Az. Time Alt. Az.
04 Dec 9.9 01:23:46 10° WSW 01:25:18 12° W 01:26:50 10° WNW visible
04 Dec 8.2 12:40:03 10° NNE 12:43:10 32° E 12:46:15 10° SSE visible
04 Dec 7.5 14:13:30 10° N 14:16:14 23° WNW 14:18:58 10° WSW visible
05 Dec 9.2 00:53:40 10° SSW 00:56:32 23° W 00:59:23 10° NW visible
05 Dec 9.3 12:12:08 10° NE 12:14:26 17° E 12:16:43 10° SE visible
05 Dec 6.6 13:44:36 10° N 13:47:52 44° WNW 13:51:06 10° SW visible
06 Dec 7.8 00:24:28 10° S 00:27:52 45° W 00:31:14 10° NNW visible
06 Dec 6.3 13:15:57 10° NNE 13:19:23 86° ESE 13:22:46 10° SSW visible
06 Dec 8.4 14:50:56 10° NW 14:52:01 11° WNW 14:53:06 10° WNW visible
07 Dec 10.3 01:32:40 10° W 01:33:00 10° W 01:33:19 10° W visible
07 Dec 7.7 12:47:32 10° NNE 12:50:46 39° E 12:53:58 10° S visible
07 Dec 7.7 14:21:14 10° NNW 14:23:45 20° WNW 14:26:16 10° WSW visible
08 Dec 9.5 01:01:34 10° SW 01:04:10 19° W 01:06:44 10° NW visible
08 Dec 9.1 12:19:27 10° NE 12:22:03 20° E 12:24:37 10° SE visible
08 Dec 6.9 13:52:13 10° N 13:55:23 36° WNW 13:58:31 10° SW visible
09 Dec 8.2 00:32:10 10° SSW 00:35:26 37° W 00:38:41 10° NNW visible
09 Dec 9.9 11:52:34 10° ENE 11:53:12 10° E 11:53:49 10° E visible
09 Dec 6.2 13:23:29 10° N 13:26:54 77° WNW 13:30:16 10° SSW visible
10 Dec 6.6 00:03:19 10° S 00:06:47 80° WSW 00:10:16 10° NNW visible
10 Dec 7.7 12:54:58 10° NNE 13:00:18 21° SSE 13:01:35 10° S visible
10 Dec 7.9 14:28:55 10° NNW 14:31:11 17° WNW 14:31:26 17° WNW visible
11 Dec 9.6 01:09:28 10° SW 01:11:42 16° W 01:13:57 10° NW visible
11 Dec 9.1 12:26:45 10° NE 12:32:07 11° SSE 12:32:22 10° SSE visible
11 Dec 7.5 13:59:46 10° N 14:06:13 - SW 14:01:55 26° NW visible
12 Dec 8.6 00:39:48 10° SSW 00:42:55 31° W 00:46:01 10° NNW visible
12 Dec10.012:03:44SE12:03:44SE11:58:32NEvisible
12 Dec 7.8 13:30:56 10° N 13:37:50 - SSW 13:32:35 26° N visible
13 Dec 7.0 00:10:48 10° S 00:14:14 65° W 00:17:39 10° NNW visible
13 Dec 8.7 13:02:20 10° NNE 13:09:21 - S 13:03:20 18° NNE visible
13 Dec 8.4 14:36:33 10° NNW 14:37:24 13° NW 14:37:24 13° NW visible
